Location: Ethel Rock
(53.4667°N, 4.5667°W)
Time: 05:33:18
(UTC+00:00)

Cosmos 1943 - Pass Details

Date: 24 October 2020
Orbit: 832 x 851 km, 71.0° (Epoch: 25 November)

Event Time Altitude Azimuth Distance (km) Brightness Sun altitude
Exits shadow 03:46:44 49° 354° (N) 1,081 3.7 -29.4°
Drops below altitude 10° 03:51:10 10° 28° (NNE) 2,473 6.2 -28.8°
Sets 03:53:40 0° 32° (NNE) 3,415 7.1 -28.4°
